Location: Anumalkud?ru
(16.4847°N, 80.6636°E)
Time: 15:13:06
(UTC+00:00)

Okean 3 - Pass Details

Date: 11 April 2026
Orbit: 540 x 562 km, 82.5° (Epoch: 11 May)

Event Time Altitude Azimuth Distance (km) Brightness Sun altitude
Rises 13:15:11 0° 359° (N) 2,710 7.0 -6.3°
Reaches altitude 10° 13:17:22 10° 2° (N) 1,813 6.1 -6.8°
Maximum altitude 13:21:19 67° 85° (E) 590 3.2 -7.8°
Drops below altitude 10° 13:25:15 10° 168° (SSE) 1,798 5.7 -8.7°
Sets 13:27:24 0° 171° (S) 2,687 6.6 -9.2°
